041210 379  0.1+  0.3-    050108 900  1.0-  0.6-    050926 704 (4.4-  0.4-) 

041210 213  0.2-  0.4+    050108 349  0.2+  0.3-    050926 704 (3.9-  1.0-) 

041210 213  0.4-  0.3+    050108 349  0.2+  0.1-    050926 704 (4.6-  1.7-) 

041210 213  0.3-  0.4+    050108 349  0.5+  0.0     050926 704 (3.3-  1.0-) 

041210 213  0.3-  0.4+    050108 213  0.3-  0.5+    050926 704 (3.8-  0.8-) 

041210 213  0.3-  0.4+    050108 213  0.3-  0.1+    051020 673  0.1+  0.1-  

041210 561  0.2+  0.2+    050108 213  0.0   0.3+    051020 673  0.8+  0.5+  

041210 561  1.9+  1.2-    050108 J78  0.3-  0.2+    051020 673  0.3+  0.3-  

041210 A32  0.1-  0.1+    050108 J78  0.4-  0.2-    051020 673  0.5+  0.5-  

041210 561 (2.9-  2.2+)   050108 J78  0.1-  0.2+    051020 673  0.8-  0.4-  

041210 A32  0.1+  0.1+    050110 379  0.4+  0.5-    051021 673  0.6+  0.1+  

041210 A32  0.1-  0.3+    050110 379  0.3-  0.4+    051021 673  0.6+  0.7-  

041210 A32  0.1-  0.1+    050110 379  0.6-  0.7+    051021 673  0.3+  1.0-  

041211 J78  0.4-  0.3+    050110 201  1.1+  1.9-    051021 673  0.1-  0.6+  

041211 J78  0.3-  0.8+    050110 201 (3.4+  0.8+)   051021 673  0.6-  0.2-  

041211 J78  0.4-  0.4+    050110 201  0.7+  0.9-                            

041211 A01  0.4+  0.2-    050110 138  0.3+  0.5-                            



NAKANO

         **** Don't distribute anyone except personal use only ****

                (C) Copyright 2005 OAA/ComputingSection

write mail from CFAD0::NAKANO on 2005-12-08 01:41:52(JST).

 



    C/2004 U1 (LINEAR)

Epoch 2004 Dec. 21.0 TT = JDT 2453360.5  

T 2004 Dec. 8.75318 TT                                  Nakano

q   2.6593834            (2000.0)            P               Q

z  +0.0002954      Peri.   20.12650     -0.15310506     +0.69653813

 +/-0.0000029      Node   112.54633     +0.77054082     -0.35999120

e   0.9992145      Incl.  130.62339     +0.61872908     +0.62067783

From 514 observations 2004 Oct. 16-2005 Aug. 27, mean residual 0".54.

   (1/a)org.= +0.000601, (1/a)fut.= +0.000931 (+/-0.000003), Q= 7.



NAKANO

         **** Don't distribute anyone except personal use only ****

                (C) Copyright 2005 OAA/ComputingSection

write mail from CFAD0::NAKANO on 2005-09-12 05:45:24(JST).

 

    C/2004 U1 (LINEAR)                                                    

Epoch 2004 Dec. 21.0 TT = JDT 2453360.5  

T 2004 Dec. 8.74865 TT                                  Nakano

q   2.6593540            (2000.0)            P               Q

z  +0.0003420      Peri.   20.12482     -0.15312063     +0.69652796

 +/-0.0000113      Node   112.54592     +0.77055097     -0.35997693

e   0.9990904      Incl.  130.62295     +0.61871259     +0.62069752

From 421 observations 2004 Oct. 16-2005 Jan. 30, mean residual 0".46.

   (1/a)org.= +0.000648, (1/a)fut.= +0.000977 (+/-0.000011), Q= 6.



NAKANO

         **** Don't distribute anyone except personal use only ****

                (C) Copyright 2005 OAA/ComputingSection

write mail from CFAD0::NAKANO on 2005-02-04 04:54:56(JST).

 

    C/2004 U1 (LINEAR)                                                    

Epoch 2004 Dec. 21.0 TT = JDT 2453360.5  

T 2004 Dec. 8.74425 TT                                  Nakano

q   2.6593268            (2000.0)            P               Q

z  +0.0003914      Peri.   20.12317     -0.15313582     +0.69651820

 +/-0.0000283      Node   112.54553     +0.77056099     -0.35996276

e   0.9989591      Incl.  130.62253     +0.61869635     +0.62071669

From 303 observations 2004 Oct. 16-Dec. 30, mean residual 0".46.

   (1/a)org.= +0.000697, (1/a)fut.= +0.001027 (+/-0.000028), Q= 5.



NAKANO

         **** Don't distribute anyone except personal use only ****

                (C) Copyright 2005 OAA/ComputingSection

write mail from CFAD0::NAKANO on 2005-01-04 01:58:32(JST).

 



◎C/2004 U1の軌道と予報位置です



 ASOのシェロ−ドの12月21日,上尾の門田健一氏の25日の観測では,CCD全光度

は,それぞれ,14.7等と14.2等でした.



    C/2004 U1 (LINEAR)                                                    

Epoch 2004 Dec. 21.0 TT = JDT 2453360.5  

T 2004 Dec. 8.74425 TT                                  Nakano

q   2.6593268            (2000.0)            P               Q

z  +0.0003914      Peri.   20.12317     -0.15313582     +0.69651820

 +/-0.0000283      Node   112.54553     +0.77056099     -0.35996276

e   0.9989591      Incl.  130.62253     +0.61869635     +0.62071669

From 303 observations 2004 Oct. 16-Dec. 30, mean residual 0".46.

   (1/a)org.= +0.000697, (1/a)fut.= +0.001027 (+/-0.000028), Q= 5.

 

Date/        TT  R.A.(2000) Decl.     Delta   r     Daily motion  Mag.  Moon Age

              h    h  m       。  ,                      ,  / PA 。  m1      。

2005 Jan.  1 12  05 53.22  +55 06.1   1.797  2.671    54.6 / 285  13.5   77  .72

           2 12  05 47.04  +55 19.7   1.804  2.672    54.0 / 283  13.5   88  .62

           3 12  05 40.85  +55 31.7   1.812  2.673    53.3 / 282  13.6  100  .52

           4 12  05 34.69  +55 42.1   1.821  2.674    52.5 / 280  13.6  113  .42

           5 12  05 28.55  +55 51.0   1.830  2.675    51.7 / 279  13.6  125  .32

           6 12  05 22.46  +55 58.5   1.840  2.677    50.9 / 277  13.6  136  .22

           7 12  05 16.43  +56 04.4   1.850  2.678    50.1 / 276  13.6  146  .13

           8 12  05 10.47  +56 09.0   1.861  2.679    49.2 / 274  13.6  151  .06

           9 12  05 04.59  +56 12.3   1.873  2.680    48.3 / 273  13.6  149  .02

          10 12  04 58.81  +56 14.2   1.885  2.682    47.3 / 271  13.7  140  .00

          11 12  04 53.13  +56 15.0   1.897  2.683    46.4 / 270  13.7  128  .02

          12 12  04 47.56  +56 14.5   1.911  2.684    45.4 / 269  13.7  115  .06

          13 12  04 42.12  +56 13.0   1.924  2.686    44.4 / 267  13.7  102  .13

          14 12  04 36.81  +56 10.4   1.939  2.687    43.4 / 266  13.7   89  .22

          15 12  04 31.63  +56 06.9   1.953  2.689    42.4 / 265  13.7   76  .31

          16 12  04 26.59  +56 02.5   1.969  2.690    41.4 / 263  13.8   64  .42

          17 12  04 21.69  +55 57.3   1.984  2.692    40.4 / 262  13.8   53  .52

          18 12  04 16.94  +55 51.4   2.000  2.694    39.4 / 261  13.8   43  .62

          19 12  04 12.34  +55 44.7   2.017  2.695    38.4 / 260  13.8   36  .71

          20 12  04 07.89  +55 37.5   2.033  2.697    37.3 / 258  13.9   31  .80

          21 12  04 03.58  +55 29.7   2.051  2.699    36.3 / 257  13.9   31  .87

          22 12  03 59.42  +55 21.4   2.068  2.701    35.3 / 256  13.9   35  .92

          23 12  03 55.42  +55 12.7   2.086  2.703    34.4 / 255  13.9   42  .96

          24 12  03 51.55  +55 03.6   2.104  2.704    33.4 / 254  13.9   51  .99

          25 12  03 47.83  +54 54.2   2.123  2.706    32.4 / 253  14.0   61 1.00

          26 12  03 44.25  +54 44.5   2.142  2.708    31.4 / 252  14.0   72  .99

          27 12  03 40.82  +54 34.6   2.161  2.710    30.5 / 251  14.0   82  .96

          28 12  03 37.51  +54 24.5   2.180  2.712    29.6 / 250  14.0   93  .91

          29 12  03 34.34  +54 14.3   2.200  2.715    28.6 / 249  14.0  104  .85

          30 12  03 31.30  +54 03.9   2.220  2.717    27.7 / 248  14.1  115  .78

          31 12  03 28.39  +53 53.5   2.240  2.719    26.8 / 247  14.1  126  .69

     Feb.  1 12  03 25.60  +53 43.1   2.260  2.721    26.0 / 247  14.1  136  .59

NAKANO

         **** Don't distribute anyone except personal use only ****

                (C) Copyright 2005 OAA/ComputingSection

write mail from CFAD0::NAKANO on 2005-01-03 03:34:37(JST).

 



◎C/2004 U1の軌道と予報位置です



 ASOのシェロ−ドの12月21日,上尾の門田健一氏の25日の観測では,CCD全光度

は,それぞれ,14.7等と14.2等でした.



    C/2004 U1 (LINEAR)                                                    

Epoch 2004 Dec. 21.0 TT = JDT 2453360.5  

T 2004 Dec. 8.74425 TT                                  Nakano

q   2.6593268            (2000.0)            P               Q

z  +0.0003914      Peri.   20.12317     -0.15313582     +0.69651820

 +/-0.0000283      Node   112.54553     +0.77056099     -0.35996276

e   0.9989591      Incl.  130.62253     +0.61869635     +0.62071669

From 303 observations 2004 Oct. 16-Dec. 30, mean residual 0".46.

   (1/a)org.= +0.000697, (1/a)fut.= +0.001027 (+/-0.000028), Q= 5.



Date/        TT  R.A.(2000) Decl.     Delta   r     Daily motion  Mag.  Moon Age

              h    h  m       。  ,                      ,  / PA 。  m1      。

2005 Jan.  1 12  05 53.22  +55 06.1   1.797  2.671    54.6 / 285  13.5   77  .72

           2 12  05 47.04  +55 19.7   1.804  2.672    54.0 / 283  13.5   88  .62

           3 12  05 40.85  +55 31.7   1.812  2.673    53.3 / 282  13.6  100  .52

           4 12  05 34.69  +55 42.1   1.821  2.674    52.5 / 280  13.6  113  .42

           5 12  05 28.55  +55 51.0   1.830  2.675    51.7 / 279  13.6  125  .32

           6 12  05 22.46  +55 58.5   1.840  2.677    50.9 / 277  13.6  136  .22

           7 12  05 16.43  +56 04.4   1.850  2.678    50.1 / 276  13.6  146  .13

           8 12  05 10.47  +56 09.0   1.861  2.679    49.2 / 274  13.6  151  .06

           9 12  05 04.59  +56 12.3   1.873  2.680    48.3 / 273  13.6  149  .02

          10 12  04 58.81  +56 14.2   1.885  2.682    47.3 / 271  13.7  140  .00

          11 12  04 53.13  +56 15.0   1.897  2.683    46.4 / 270  13.7  128  .02

          12 12  04 47.56  +56 14.5   1.911  2.684    45.4 / 269  13.7  115  .06

          13 12  04 42.12  +56 13.0   1.924  2.686    44.4 / 267  13.7  102  .13

          14 12  04 36.81  +56 10.4   1.939  2.687    43.4 / 266  13.7   89  .22

          15 12  04 31.63  +56 06.9   1.953  2.689    42.4 / 265  13.7   76  .31

          16 12  04 26.59  +56 02.5   1.969  2.690    41.4 / 263  13.8   64  .42

          17 12  04 21.69  +55 57.3   1.984  2.692    40.4 / 262  13.8   53  .52

          18 12  04 16.94  +55 51.4   2.000  2.694    39.4 / 261  13.8   43  .62

          19 12  04 12.34  +55 44.7   2.017  2.695    38.4 / 260  13.8   36  .71

          20 12  04 07.89  +55 37.5   2.033  2.697    37.3 / 258  13.9   31  .80

